[[{"header":{"parameterUnit":"m.s-1","parameterCategory":1,"la1":30.2991,"la2":30.254,"lo1":-89.0895,"lo2":-89.0444,"dy":0.0017,"dx":0.0017,"nx":28,"ny":28,"refTime":"2023-09-06T21:00:00:Z","depth":0,"parameterNumber":2,"parameterNumberName":"U-component_of_WINDS"},"data":[0,0,0,0,0,0,0,0,0,0,0,0,0,0,0,0,0,0,0,0,0,0,0,0,0,0,0,0,0,0,0,0,0,0,0,0,0,0,0,0,0,0,0,0,0,0,0,0,0,0,0,0,0,0,0,0,0,0,1.3664,1.3666,0,1.3805,1.3806,1.3808,1.3862,1.3861,1.3861,1.3861,1.4007,1.4011,1.4015,0,0,0,0,0,0,0,0,0,0,0,0,0,1.3445,1.3449,1.3664,1.3666,1.3668,1.3804,1.3806,1.3808,1.3862,1.3861,1.3861,1.386,1.4005,1.4011,1.4016,0,0,0,0,0,0,0,0,0,0,0,0,0,1.3559,1.345,1.3664,1.3711,1.3717,1.3804,1.3806,1.3809,1.3862,1.3861,1.3861,1.386,1.4004,1.401,1.4016,1.4068,0,0,1.4036,1.4039,0,0,0,0,0,0,0,0,1.3552,1.3567,1.3702,1.3708,1.3714,1.3815,1.3783,1.3896,1.3862,1.3807,1.3861,1.386,1.3944,1.3955,1.3983,1.4075,1.4082,1.4037,1.404,1.4043,1.4045,0,0,0,0,0,0,0,1.3544,1.3561,1.372,1.3704,1.3712,1.3726,1.3741,1.3805,1.3877,1.3812,1.3816,1.3832,1.3947,1.3976,1.3987,1.4084,1.4036,1.4042,1.4046,1.4049,1.4227,1.4228,0,0,0,0,0,0,1.3528,1.3554,1.3716,1.3724,1.363,1.373,1.3748,1.3783,1.3877,1.389,1.3832,1.3834,1.3966,1.3979,1.3992,1.4059,1.4043,1.4049,1.4053,1.4226,1.4227,1.4228,0,0,0,0,0,0,1.3523,1.3542,1.371,1.364,1.3663,1.3735,1.3775,1.3786,1.3816,1.3892,1.3905,1.3849,1.3966,1.3983,1.4049,1.4065,1.4052,1.4058,1.4225,1.4226,1.4227,1.4194,0,0,0,0,0,0,1.3517,1.354,1.356,1.364,1.3666,1.3763,1.3776,1.379,1.3827,1.383,1.3911,1.3924,1.3967,1.4039,1.4055,1.4074,1.4063,1.4224,1.4225,1.4227,1.4194,1.4194,1.4194,0,0,0,0,0,1.3509,1.3545,1.356,1.358,1.3692,1.3764,1.3779,1.3827,1.3828,1.3849,1.3898,1.3921,1.4061,1.4045,1.4064,1.4085,1.4223,1.4225,1.4227,1.4194,1.4194,1.4194,0,0,0,0,0,0,1.3465,1.3556,1.3574,1.3638,1.3693,1.3773,1.3801,1.3825,1.3882,1.3882,1.394,1.3958,1.4019,1.4059,1.404,1.414,1.4144,1.4149,1.4112,1.4113,1.4113,1.4102,1.4068,0,0,0,0,0,1.3463,1.3513,1.359,1.3639,1.3665,1.3728,1.3761,1.3793,1.3853,1.3877,1.393,1.3988,1.4045,1.4081,1.4138,1.42,1.4219,1.4224,1.4224,1.4223,1.4227,1.4264,1.4267,1.4234,1.4234,1.4234,0,0,1.3459,1.3515,1.3543,1.3631,1.3678,1.3729,1.3747,1.3801,1.384,1.3885,1.395,1.3992,1.406,1.4124,1.4156,1.4159,1.4241,1.4226,1.4225,1.423,1.4266,1.4269,1.4272,1.4236,1.4236,1.4235,0,0,1.3477,1.3524,1.357,1.3616,1.3686,1.3727,1.3738,1.3815,1.3844,1.3911,1.3946,1.3994,1.409,1.4138,1.4174,1.4211,1.4236,1.4228,1.4228,1.4263,1.4266,1.4268,1.4281,1.4285,1.4232,1.4232,1.4232,0,1.3463,1.3541,1.359,1.3642,1.368,1.3723,1.377,1.3813,1.3898,1.3924,1.3926,1.4049,1.4098,1.4174,1.4183,1.4211,1.4226,1.4219,1.4261,1.4264,1.4267,1.4281,1.4285,1.4231,1.4231,1.4231,1.4231,0,1.352,1.3574,1.3603,1.3683,1.3724,1.3773,1.3831,1.3868,1.3896,1.3938,1.4005,1.4066,1.4135,1.4156,1.4185,1.4237,1.4237,1.425,1.4254,1.4268,1.4282,1.4287,1.4229,1.4229,1.423,1.423,0,0,1.3514,1.3622,1.3631,1.3669,1.3749,1.3792,1.3843,1.3911,1.3941,1.3998,1.4043,1.4124,1.4137,1.4178,1.4213,1.4244,1.4269,1.4253,1.4255,1.4254,1.433,1.432,1.4325,1.4286,1.4287,1.4288,1.4325,0,1.3543,1.3636,1.3683,1.3756,1.3807,1.3849,1.3894,1.3948,1.3989,1.4038,1.4084,1.414,1.4152,1.4178,1.421,1.4259,1.4285,1.4257,1.4329,1.4331,1.431,1.4332,1.4321,1.4353,1.433,1.4331,1.4332,0,1.3589,1.3646,1.3724,1.3799,1.3822,1.3861,1.3927,1.3974,1.4037,1.4064,1.4111,1.4145,1.4202,1.4202,1.4281,1.4261,1.4294,1.4322,1.4325,1.4333,1.4332,1.4341,1.4364,1.4369,1.4341,1.434,1.4339,0,1.3577,1.3673,1.3732,1.3762,1.3851,1.3878,1.3917,1.3979,1.4017,1.4075,1.41,1.4164,1.4199,1.4248,1.4299,1.4295,1.4374,1.4378,1.4399,1.4397,1.4413,1.4411,1.4441,1.4434,1.4434,1.4434,1.4434,0,1.3604,1.365,1.3727,1.3764,1.3817,1.3871,1.3922,1.3964,1.402,1.4065,1.4106,1.4148,1.4213,1.4263,1.4304,1.4363,1.4379,1.4403,1.4413,1.44,1.4396,1.4421,1.442,1.4435,1.4435,1.4435,1.4434,0,1.3599,1.3653,1.372,1.3799,1.382,1.3855,1.3923,1.3961,1.4004,1.4061,1.4078,1.4145,1.4207,1.4262,1.4345,1.4372,1.4433,1.4445,1.4411,1.4416,1.4433,1.4431,1.448,1.449,1.4476,1.4476,1.4476,0,1.3613,1.3649,1.3732,1.3765,1.3803,1.3856,1.3895,1.395,1.3988,1.4063,1.4092,1.4156,1.4211,1.4308,1.4365,1.4428,1.4443,1.4456,1.4452,1.4437,1.4443,1.444,1.4444,1.4455,1.4455,1.4455,1.4455,0,1.3631,1.3656,1.371,1.3773,1.3818,1.387,1.3924,1.395,1.4015,1.4056,1.412,1.4162,1.4246,1.4309,1.4379,1.442,1.4448,1.4455,1.4463,1.4449,1.4428,1.444,1.441,1.4454,1.4454,1.4454,1.4454,1.4454,1.3636,1.367,1.3734,1.3793,1.3839,1.3889,1.3928,1.3975,1.4029,1.4101,1.413,1.4195,1.4258,1.4354,1.4395,1.4447,1.4452,1.4464,1.4467,1.4469,1.4466,1.4419,1.446,1.446,1.446,1.446,1.446,0,1.3657,1.37,1.3753,1.3827,1.3874,1.3896,1.3957,1.3995,1.4051,1.4107,1.416,1.4233,1.4295,1.4357,1.4423,1.4452,1.4467,1.4468,1.4466,1.4475,1.4458,1.4444,1.4455,1.4455,1.4455,1.4455,1.4455,1.4455,1.3673,1.3732,1.3765,1.3848,1.3891,1.3954,1.3987,1.4033,1.4079,1.4158,1.421,1.425,1.4309,1.4379,1.4437,1.4454,1.4476,1.4473,1.4494,1.4476,1.4476,1.4476,1.4463,1.4478,1.4478,1.4507,1.4507,1.4507]},{"header":{"parameterUnit":"m.s-1","parameterCategory":1,"la1":30.2991,"la2":30.254,"lo1":-89.0895,"lo2":-89.0444,"dy":0.0017,"dx":0.0017,"nx":28,"ny":28,"refTime":"2023-09-06T21:00:00:Z","depth":0,"parameterNumber":3,"parameterNumberName":"V-component_of_WINDS"},"data":[0,0,0,0,0,0,0,0,0,0,0,0,0,0,0,0,0,0,0,0,0,0,0,0,0,0,0,0,0,0,0,0,0,0,0,0,0,0,0,0,0,0,0,0,0,0,0,0,0,0,0,0,0,0,0,0,0,0,4.3383,4.3383,0,4.3349,4.3349,4.3349,4.3353,4.3354,4.3354,4.3355,4.3312,4.331,4.3309,0,0,0,0,0,0,0,0,0,0,0,0,0,4.3444,4.3443,4.3383,4.3383,4.3382,4.335,4.3349,4.3349,4.3353,4.3354,4.3354,4.3355,4.3313,4.3311,4.3309,0,0,0,0,0,0,0,0,0,0,0,0,0,4.3414,4.3442,4.3383,4.3381,4.338,4.335,4.3349,4.3348,4.3353,4.3354,4.3355,4.3355,4.3313,4.3311,4.3308,4.3275,0,0,4.3301,4.33,0,0,0,0,0,0,0,0,4.3416,4.3412,4.3382,4.3381,4.338,4.3357,4.3355,4.3324,4.3353,4.3363,4.3355,4.3356,4.3326,4.3322,4.3314,4.3273,4.3272,4.33,4.3299,4.3298,4.3297,0,0,0,0,0,0,0,4.3418,4.3414,4.337,4.3381,4.338,4.3379,4.3376,4.3349,4.334,4.3362,4.3363,4.3359,4.3325,4.3316,4.3313,4.3271,4.3301,4.3298,4.3297,4.3296,4.3201,4.32,0,0,0,0,0,0,4.3422,4.3415,4.3371,4.3369,4.3401,4.3377,4.3374,4.3363,4.334,4.3337,4.3358,4.3359,4.332,4.3316,4.3311,4.3271,4.3298,4.3296,4.3294,4.3202,4.3201,4.32,0,0,0,0,0,0,4.3423,4.3418,4.3372,4.3392,4.3386,4.3375,4.3363,4.3362,4.3353,4.3337,4.3335,4.3351,4.332,4.3315,4.3285,4.3269,4.3294,4.3292,4.3203,4.3201,4.32,4.3189,0,0,0,0,0,0,4.3425,4.3418,4.3408,4.3392,4.3385,4.3348,4.3363,4.3361,4.335,4.3351,4.333,4.3327,4.3321,4.3288,4.3282,4.3266,4.329,4.3204,4.3202,4.3201,4.3191,4.3188,4.3185,0,0,0,0,0,4.3427,4.3404,4.3407,4.3402,4.3372,4.3348,4.3343,4.3339,4.3348,4.3336,4.3326,4.3327,4.3272,4.3285,4.3278,4.3261,4.3205,4.3203,4.3201,4.3192,4.3188,4.3185,0,0,0,0,0,0,4.3415,4.3402,4.3405,4.3377,4.3364,4.3349,4.3333,4.3335,4.3317,4.3318,4.3311,4.3306,4.3276,4.3266,4.3281,4.3228,4.324,4.3236,4.3236,4.3232,4.3229,4.3231,4.3288,0,0,0,0,0,4.341,4.3394,4.3382,4.3358,4.3352,4.3344,4.3333,4.3331,4.3316,4.331,4.3297,4.328,4.3259,4.3245,4.3224,4.319,4.3184,4.3175,4.3171,4.3169,4.3165,4.3145,4.314,4.3192,4.3192,4.3192,0,0,4.3398,4.3389,4.3378,4.3356,4.3345,4.3327,4.3339,4.3318,4.3304,4.3305,4.3277,4.3267,4.3248,4.3215,4.32,4.3206,4.315,4.3166,4.3164,4.3162,4.3142,4.3137,4.3133,4.3191,4.3191,4.3191,0,0,4.3366,4.3358,4.3337,4.3327,4.3312,4.3307,4.3302,4.3287,4.3281,4.3253,4.3254,4.3235,4.3199,4.3185,4.3173,4.3136,4.3136,4.313,4.3113,4.3093,4.3089,4.3085,4.3071,4.3066,4.3126,4.3126,4.3126,0,4.3352,4.3326,4.3326,4.3306,4.3295,4.3299,4.3276,4.3266,4.3243,4.3235,4.3242,4.3197,4.3184,4.3148,4.3139,4.313,4.3122,4.3131,4.309,4.3087,4.3083,4.3069,4.3064,4.3125,4.3125,4.3126,4.3126,0,4.3309,4.3291,4.3276,4.3258,4.3245,4.3224,4.3218,4.3205,4.3204,4.3197,4.3167,4.3152,4.3129,4.312,4.3118,4.3083,4.3087,4.3092,4.3104,4.3077,4.3064,4.3059,4.3124,4.3125,4.3125,4.3125,0,0,4.3268,4.3251,4.3245,4.3237,4.3221,4.3205,4.3183,4.3163,4.3152,4.3136,4.3116,4.3086,4.3091,4.3077,4.3073,4.3057,4.3027,4.3064,4.3063,4.3056,4.2986,4.2982,4.2976,4.3028,4.3027,4.3026,4.2988,0,4.3234,4.3198,4.3197,4.3163,4.3146,4.3149,4.313,4.3117,4.311,4.3092,4.3083,4.3062,4.307,4.3062,4.3046,4.3034,4.3013,4.3037,4.3006,4.3005,4.3011,4.2969,4.2965,4.2929,4.2983,4.2982,4.2981,0,4.3189,4.3175,4.3141,4.3127,4.312,4.3103,4.3084,4.3068,4.3052,4.3048,4.3034,4.3032,4.3007,4.3021,4.2985,4.3001,4.2989,4.2981,4.298,4.2976,4.2991,4.2963,4.2918,4.2912,4.2973,4.2974,4.2974,0,4.3162,4.3134,4.311,4.3102,4.3086,4.3074,4.3066,4.3052,4.304,4.3022,4.3014,4.2993,4.2981,4.2963,4.2955,4.2966,4.2919,4.2932,4.2913,4.2913,4.2902,4.2902,4.2853,4.2896,4.2896,4.2896,4.2896,0,4.3123,4.3101,4.3097,4.3082,4.3057,4.3055,4.303,4.3022,4.3009,4.2991,4.2992,4.2974,4.2966,4.2945,4.2939,4.2909,4.2904,4.2898,4.2896,4.2897,4.2898,4.2888,4.289,4.2894,4.2895,4.2895,4.2895,0,4.3087,4.3084,4.3058,4.3046,4.3042,4.3024,4.3012,4.2996,4.299,4.2967,4.2961,4.295,4.2927,4.2918,4.2888,4.2884,4.285,4.285,4.2856,4.2855,4.2836,4.2837,4.2777,4.2769,4.2818,4.2818,4.2817,0,4.3063,4.3047,4.3033,4.3023,4.3015,4.2997,4.2986,4.2983,4.297,4.2951,4.2937,4.2914,4.2896,4.2858,4.2846,4.2823,4.2822,4.2803,4.2818,4.282,4.282,4.2821,4.2819,4.2799,4.2799,4.2798,4.2798,0,4.3019,4.3018,4.3003,4.2987,4.2974,4.296,4.2947,4.2937,4.2931,4.2916,4.2894,4.288,4.2852,4.2828,4.2805,4.2794,4.2794,4.2793,4.2787,4.2788,4.2792,4.2788,4.2847,4.2794,4.2795,4.2795,4.2795,4.2795,4.2987,4.2973,4.2962,4.2944,4.2934,4.2922,4.2907,4.29,4.2882,4.2861,4.2859,4.2835,4.2818,4.2787,4.2775,4.2754,4.2759,4.275,4.2748,4.2746,4.2744,4.2796,4.275,4.275,4.275,4.275,4.275,0,4.2942,4.2936,4.292,4.2903,4.2888,4.2894,4.2879,4.2866,4.2845,4.2831,4.2814,4.2788,4.2765,4.2752,4.2729,4.2714,4.2713,4.2708,4.2708,4.2705,4.2742,4.2749,4.2709,4.2709,4.2709,4.2709,4.2709,4.2709,4.2917,4.2893,4.2891,4.2862,4.2855,4.2833,4.2824,4.2812,4.2801,4.2773,4.2755,4.2748,4.2733,4.2709,4.2688,4.2684,4.2675,4.2669,4.2665,4.2699,4.2703,4.2707,4.2714,4.2667,4.2667,4.2631,4.263,4.263]}]]